TimeEDT,TemperatureF,Dew PointF,Humidity,Sea Level PressureIn,VisibilityMPH,Wind Direction,Wind SpeedMPH,Gust SpeedMPH,PrecipitationIn,Events,Conditions,WindDirDegrees,DateUTC
12:08 AM,28.4,28.4,100,30.07,2.0,NNE,3.5,-,N/A,Snow,Light Snow,30,2014-03-17 04:08:00
12:18 AM,28.4,28.4,100,30.06,1.8,Variable,3.5,-,N/A,Snow,Light Snow,0,2014-03-17 04:18:00
12:23 AM,28.4,28.4,100,30.06,1.5,Variable,5.8,-,N/A,Snow,Light Snow,0,2014-03-17 04:23:00
12:28 AM,28.4,28.4,100,30.06,1.8,Variable,4.6,-,N/A,Snow,Light Snow,0,2014-03-17 04:28:00
12:33 AM,28.4,28.4,100,30.06,2.5,North,3.5,-,N/A,Snow,Light Snow,10,2014-03-17 04:33:00
12:53 AM,30.2,28.4,93,30.06,1.8,Variable,3.5,-,N/A,Snow,Light Snow,0,2014-03-17 04:53:00
12:58 AM,29.5,28.0,94,30.06,1.2,NNE,2.3,-,0.01,Snow,Light Snow,20,2014-03-17 04:58:00
1:03 AM,30.2,28.4,93,30.05,1.0,Variable,4.6,-,N/A,Snow,Light Snow,0,2014-03-17 05:03:00
1:13 AM,30.2,28.4,93,30.05,1.2,Variable,3.5,-,N/A,Snow,Light Snow,0,2014-03-17 05:13:00
1:28 AM,28.4,28.4,100,30.05,1.0,Variable,3.5,-,N/A,Snow,Light Snow,0,2014-03-17 05:28:00
1:33 AM,28.4,28.4,100,30.05,0.8,NNE,3.5,-,N/A,Snow,Light Snow,30,2014-03-17 05:33:00
1:43 AM,28.4,28.4,100,30.05,1.0,NNE,5.8,-,N/A,Snow,Light Snow,30,2014-03-17 05:43:00
1:48 AM,28.4,28.4,100,30.05,1.2,Variable,6.9,-,N/A,Snow,Light Snow,0,2014-03-17 05:48:00
1:53 AM,28.4,26.6,93,30.04,1.0,Variable,5.8,-,N/A,Snow,Light Snow,0,2014-03-17 05:53:00
1:58 AM,28.4,26.6,93,30.06,1.0,NNE,9.2,-,0.00,Snow,Light Snow,30,2014-03-17 05:58:00
2:23 AM,28.4,26.6,93,30.06,1.2,Variable,4.6,-,N/A,Snow,Light Snow,0,2014-03-17 06:23:00
2:38 AM,26.6,24.8,93,30.06,1.0,NNE,5.8,-,N/A,Snow,Light Snow,30,2014-03-17 06:38:00
2:53 AM,26.6,26.6,100,30.05,1.0,Variable,2.3,-,N/A,Snow,Light Snow,0,2014-03-17 06:53:00
2:58 AM,27.3,25.9,94,30.06,1.0,Variable,3.5,-,0.00,Snow,Light Snow,0,2014-03-17 06:58:00
3:03 AM,26.6,26.6,100,30.05,1.2,Variable,3.5,-,N/A,Snow,Light Snow,0,2014-03-17 07:03:00
3:08 AM,26.6,26.6,100,30.05,1.2,NNE,4.6,-,N/A,Snow,Light Snow,30,2014-03-17 07:08:00
3:43 AM,26.6,24.8,93,30.05,1.5,North,3.5,-,N/A,Snow,Light Snow,360,2014-03-17 07:43:00
3:58 AM,27.0,25.2,93,30.05,1.5,Variable,3.5,-,0.00,Snow,Light Snow,0,2014-03-17 07:58:00
4:23 AM,26.6,24.8,93,30.04,1.8,NNE,3.5,-,N/A,Snow,Light Snow,20,2014-03-17 08:23:00
4:33 AM,26.6,24.8,93,30.03,2.0,North,4.6,-,N/A,Snow,Light Snow,10,2014-03-17 08:33:00
4:38 AM,26.6,24.8,93,30.03,1.8,Variable,6.9,-,N/A,Snow,Light Snow,0,2014-03-17 08:38:00
4:43 AM,26.6,23.0,86,30.03,1.5,Variable,5.8,-,N/A,Snow,Light Snow,0,2014-03-17 08:43:00
4:58 AM,25.7,23.5,92,30.04,1.8,Variable,4.6,-,0.01,Snow,Light Snow,0,2014-03-17 08:58:00
5:03 AM,26.6,23.0,86,30.03,2.0,Variable,3.5,-,N/A,Snow,Light Snow,0,2014-03-17 09:03:00
5:13 AM,26.6,23.0,86,30.03,2.5,North,4.6,-,N/A,Snow,Light Snow,10,2014-03-17 09:13:00
5:23 AM,26.6,23.0,86,30.03,3.0,NNE,5.8,-,N/A,Snow,Light Snow,20,2014-03-17 09:23:00
5:38 AM,26.6,23.0,86,30.02,4.0,Variable,2.3,-,N/A,Snow,Light Snow,0,2014-03-17 09:38:00
5:53 AM,26.6,23.0,86,30.02,3.0,Variable,4.6,-,N/A,Snow,Light Snow,0,2014-03-17 09:53:00
5:58 AM,25.9,23.4,90,30.02,3.0,Variable,4.6,-,0.02,Snow,Light Snow,0,2014-03-17 09:58:00
6:03 AM,26.6,23.0,86,30.01,3.0,North,4.6,-,N/A,Snow,Light Snow,350,2014-03-17 10:03:00
6:08 AM,26.6,23.0,86,30.01,3.0,Variable,4.6,-,N/A,Snow,Light Snow,0,2014-03-17 10:08:00
6:13 AM,26.6,23.0,86,30.01,2.5,Variable,6.9,-,N/A,Snow,Light Snow,0,2014-03-17 10:13:00
6:18 AM,26.6,23.0,86,30.01,2.0,Variable,5.8,-,N/A,Snow,Light Snow,0,2014-03-17 10:18:00
6:23 AM,24.8,23.0,93,30.01,1.8,Variable,6.9,-,N/A,Snow,Light Snow,0,2014-03-17 10:23:00
6:28 AM,24.8,23.0,93,30.00,2.5,Variable,4.6,-,N/A,Snow,Light Snow,0,2014-03-17 10:28:00
6:33 AM,24.8,23.0,93,30.01,3.0,Variable,4.6,-,N/A,Snow,Light Snow,0,2014-03-17 10:33:00
6:38 AM,24.8,23.0,93,30.01,4.0,North,4.6,-,N/A,Snow,Light Snow,350,2014-03-17 10:38:00
6:43 AM,24.8,23.0,93,30.02,7.0,Variable,4.6,-,N/A,Snow,Light Snow,0,2014-03-17 10:43:00
6:58 AM,25.7,22.6,88,30.02,10.0,North,5.8,-,0.04,Snow,Light Snow,360,2014-03-17 10:58:00
7:22 AM,24.8,21.2,86,30.03,10.0,Variable,5.8,-,N/A,,Mostly Cloudy,0,2014-03-17 11:22:00
7:33 AM,24.8,21.2,86,30.03,10.0,North,6.9,-,N/A,Snow,Light Snow,350,2014-03-17 11:33:00
7:53 AM,24.8,21.2,86,30.04,10.0,Variable,4.6,-,N/A,,Overcast,0,2014-03-17 11:53:00
7:58 AM,25.5,21.4,84,30.06,10.0,North,5.8,-,0.03,,Overcast,350,2014-03-17 11:58:00
8:03 AM,24.8,21.2,86,30.03,10.0,Variable,3.5,-,N/A,,Overcast,0,2014-03-17 12:03:00
8:12 AM,26.6,21.2,80,30.05,10.0,North,5.8,-,N/A,,Overcast,350,2014-03-17 12:12:00
8:17 AM,26.6,21.2,80,30.05,10.0,Variable,3.5,-,N/A,,Overcast,0,2014-03-17 12:17:00
8:47 AM,26.6,21.2,80,30.03,6.0,Variable,3.5,-,N/A,Snow,Light Snow,0,2014-03-17 12:47:00
8:58 AM,26.2,21.4,82,30.04,5.0,Variable,6.9,-,0.03,Snow,Light Snow,0,2014-03-17 12:58:00
9:58 AM,26.8,21.7,81,30.07,6.0,North,5.8,-,0.03,,Overcast,360,2014-03-17 13:58:00
10:18 AM,26.6,21.2,80,30.06,7.0,North,6.9,-,N/A,,Overcast,360,2014-03-17 14:18:00
10:38 AM,26.6,21.2,80,30.04,5.0,North,5.8,-,N/A,,Overcast,10,2014-03-17 14:38:00
10:58 AM,27.9,21.9,78,30.07,8.0,North,8.1,-,0.03,,Overcast,360,2014-03-17 14:58:00
11:13 AM,28.4,23.0,80,30.07,10.0,North,4.6,-,N/A,,Overcast,360,2014-03-17 15:13:00
11:14 AM,28.4,23.0,80,30.07,10.0,NNW,5.8,-,N/A,,Overcast,340,2014-03-17 15:14:00
11:19 AM,28.4,21.2,74,30.07,10.0,North,5.8,-,N/A,,Overcast,360,2014-03-17 15:19:00
11:37 AM,28.4,21.2,74,30.05,9.0,North,9.2,-,N/A,,Overcast,10,2014-03-17 15:37:00
11:58 AM,28.6,21.6,75,30.07,6.0,North,8.1,-,0.01,,Overcast,350,2014-03-17 15:58:00
12:10 PM,28.4,21.2,74,30.05,9.0,North,9.2,-,N/A,,Overcast,350,2014-03-17 16:10:00
12:58 PM,28.8,21.6,74,30.09,10.0,North,9.2,-,0.03,,Mostly Cloudy,360,2014-03-17 16:58:00
1:08 PM,28.4,21.2,74,30.05,10.0,Variable,6.9,-,N/A,,Mostly Cloudy,0,2014-03-17 17:08:00
1:28 PM,28.4,21.2,74,30.05,10.0,NNE,8.1,-,N/A,,Mostly Cloudy,20,2014-03-17 17:28:00
1:32 PM,28.4,21.2,74,30.05,10.0,North,8.1,-,N/A,,Mostly Cloudy,10,2014-03-17 17:32:00
1:42 PM,28.4,21.2,74,30.05,10.0,NNE,6.9,-,N/A,,Mostly Cloudy,20,2014-03-17 17:42:00
1:58 PM,29.1,21.6,73,30.06,10.0,Variable,6.9,-,0.04,,Mostly Cloudy,0,2014-03-17 17:58:00
2:58 PM,29.7,21.9,73,30.06,10.0,Variable,2.3,-,0.03,,Overcast,0,2014-03-17 18:58:00
3:43 PM,30.2,21.2,69,30.05,10.0,Variable,3.5,-,N/A,,Overcast,0,2014-03-17 19:43:00
3:58 PM,29.3,21.6,73,30.06,10.0,NE,5.8,-,0.02,,Overcast,40,2014-03-17 19:58:00
4:38 PM,30.2,23.0,75,30.04,10.0,Variable,4.6,-,N/A,,Overcast,0,2014-03-17 20:38:00
4:53 PM,30.2,23.0,75,30.03,10.0,Variable,5.8,-,N/A,,Overcast,0,2014-03-17 20:53:00
4:58 PM,29.7,22.3,74,30.06,10.0,Variable,2.3,-,0.02,,Overcast,0,2014-03-17 20:58:00
5:03 PM,30.2,23.0,75,30.04,10.0,Variable,4.6,-,N/A,,Overcast,0,2014-03-17 21:03:00
5:28 PM,30.2,23.0,75,30.05,10.0,Variable,4.6,-,N/A,,Overcast,0,2014-03-17 21:28:00
5:33 PM,30.2,23.0,75,30.05,10.0,Variable,5.8,-,N/A,,Overcast,0,2014-03-17 21:33:00
5:43 PM,30.2,23.0,75,30.05,10.0,Variable,3.5,-,N/A,,Overcast,0,2014-03-17 21:43:00
5:58 PM,29.7,23.0,76,30.07,10.0,NNE,4.6,-,0.01,,Overcast,20,2014-03-17 21:58:00
6:13 PM,30.2,24.8,80,30.05,10.0,Variable,5.8,-,N/A,,Overcast,0,2014-03-17 22:13:00
6:58 PM,29.1,25.2,85,30.07,9.0,Variable,2.3,-,0.01,,Overcast,0,2014-03-17 22:58:00
7:03 PM,28.4,24.8,86,30.06,9.0,NE,2.3,-,N/A,,Overcast,40,2014-03-17 23:03:00
7:08 PM,28.4,24.8,86,30.06,9.0,NNE,2.3,-,N/A,,Overcast,20,2014-03-17 23:08:00
7:48 PM,28.4,24.8,86,30.05,10.0,Variable,1.2,-,N/A,,Overcast,0,2014-03-17 23:48:00
7:58 PM,28.9,24.3,83,30.07,10.0,Variable,3.5,-,0.01,,Overcast,0,2014-03-17 23:58:00
8:58 PM,29.1,23.7,80,30.11,10.0,Variable,2.3,-,N/A,,Overcast,0,2014-03-18 00:58:00
9:23 PM,28.4,23.0,80,30.11,10.0,Variable,1.2,-,N/A,,Overcast,0,2014-03-18 01:23:00
9:53 PM,28.4,24.8,86,30.11,10.0,NNE,2.3,-,N/A,,Overcast,20,2014-03-18 01:53:00
9:58 PM,28.9,24.3,83,30.12,10.0,North,2.3,-,N/A,,Overcast,10,2014-03-18 01:58:00
10:58 PM,29.1,23.4,79,30.12,10.0,NNE,1.2,-,N/A,,Overcast,20,2014-03-18 02:58:00
11:58 PM,29.7,23.0,76,30.14,10.0,Calm,Calm,-,0.01,,Overcast,0,2014-03-18 03:58:00